TimeCST,TemperatureF,Dew PointF,Humidity,Sea Level PressureIn,VisibilityMPH,Wind Direction,Wind SpeedMPH,Gust SpeedMPH,PrecipitationIn,Events,Conditions,WindDirDegrees,DateUTC
12:11 AM,33.8,28.4,81,29.87,2.5,Calm,Calm,-,N/A,,Light Drizzle,0,2012-11-06 06:11:00
12:32 AM,33.8,28.4,81,29.86,2.0,Calm,Calm,-,N/A,,Light Drizzle,0,2012-11-06 06:32:00
12:51 AM,33.8,28.4,81,29.85,2.0,East,3.5,-,N/A,,Light Drizzle,80,2012-11-06 06:51:00
1:11 AM,33.8,28.4,81,29.84,2.5,East,3.5,-,N/A,,Light Drizzle,80,2012-11-06 07:11:00
1:32 AM,33.8,28.4,81,29.83,3.0,ENE,3.5,-,N/A,,Haze,70,2012-11-06 07:32:00
1:51 AM,33.8,30.2,87,29.82,5.0,East,3.5,-,N/A,,Overcast,100,2012-11-06 07:51:00
2:11 AM,35.6,30.2,81,29.81,7.0,ESE,3.5,-,N/A,Rain,Light Rain,110,2012-11-06 08:11:00
2:32 AM,35.6,30.2,81,29.80,7.0,Calm,Calm,-,N/A,,Drizzle,0,2012-11-06 08:32:00
2:51 AM,35.6,30.2,81,29.79,5.0,South,4.6,-,N/A,Rain,Light Rain,170,2012-11-06 08:51:00
3:11 AM,35.6,30.2,81,29.78,5.0,South,6.9,-,0.01,,Overcast,180,2012-11-06 09:11:00
3:31 AM,37.4,32.0,81,29.77,5.0,South,8.1,-,0.02,,Drizzle,190,2012-11-06 09:31:00
3:52 AM,37.4,32.0,81,29.76,4.0,South,9.2,-,0.03,,Unknown,180,2012-11-06 09:52:00
4:12 AM,37.4,32.0,81,29.75,4.0,South,8.1,-,0.01,Rain,Light Rain,180,2012-11-06 10:12:00
4:32 AM,35.6,30.2,81,29.74,3.0,Calm,Calm,-,0.02,Rain,Light Rain,180,2012-11-06 10:32:00
4:51 AM,32.0,30.2,93,29.74,2.5,South,10.4,-,0.02,Rain,Light Rain,170,2012-11-06 10:51:00
5:11 AM,35.6,30.2,81,29.73,4.0,South,11.5,18.4,0.01,,Drizzle,180,2012-11-06 11:11:00
5:32 AM,35.6,30.2,81,29.72,3.0,South,10.4,-,0.02,Rain,Light Rain,180,2012-11-06 11:32:00
5:51 AM,35.6,30.2,81,29.72,3.0,South,13.8,19.6,0.03,Rain,Light Rain,180,2012-11-06 11:51:00
6:11 AM,35.6,30.2,81,29.71,3.0,South,9.2,-,0.01,Rain,Light Rain,190,2012-11-06 12:11:00
6:32 AM,33.8,30.2,87,29.71,4.0,SSW,10.4,-,0.03,Rain,Light Rain,200,2012-11-06 12:32:00
6:51 AM,33.8,28.4,81,29.70,3.0,South,6.9,-,0.04,Rain,Light Rain,180,2012-11-06 12:51:00
7:11 AM,33.8,28.4,81,29.70,3.0,South,8.1,-,0.01,Rain,Light Rain,190,2012-11-06 13:11:00
7:32 AM,33.8,28.4,81,29.70,2.5,South,6.9,-,0.01,Rain,Light Rain,180,2012-11-06 13:32:00
7:51 AM,33.8,28.4,81,29.71,2.0,South,5.8,-,0.02,Rain,Light Rain,180,2012-11-06 13:51:00
8:11 AM,33.8,28.4,81,29.71,2.0,South,5.8,-,0.01,Rain,Light Rain,190,2012-11-06 14:11:00
8:32 AM,33.8,28.4,81,29.70,1.8,South,3.5,-,0.02,Rain,Rain,180,2012-11-06 14:32:00
8:51 AM,33.8,28.4,81,29.70,1.5,Calm,Calm,-,0.03,,Overcast,0,2012-11-06 14:51:00
9:11 AM,33.8,28.4,81,29.70,2.0,South,4.6,-,N/A,Rain,Light Rain,180,2012-11-06 15:11:00
9:32 AM,33.8,28.4,81,29.70,2.5,South,4.6,-,N/A,Rain,Light Rain,190,2012-11-06 15:32:00
9:51 AM,33.8,28.4,81,29.70,3.0,South,5.8,-,0.01,Rain,Light Rain,190,2012-11-06 15:51:00
10:11 AM,33.8,28.4,81,29.70,4.0,South,3.5,-,N/A,,Drizzle,180,2012-11-06 16:11:00
10:32 AM,33.8,30.2,87,29.70,4.0,South,3.5,-,N/A,,Drizzle,190,2012-11-06 16:32:00
10:51 AM,35.6,30.2,81,29.70,4.0,SSW,3.5,-,N/A,,Light Drizzle,210,2012-11-06 16:51:00
11:11 AM,35.6,30.2,81,29.70,7.0,SW,4.6,-,N/A,,Light Drizzle,220,2012-11-06 17:11:00
11:32 AM,35.6,30.2,81,29.69,10.0,SSW,3.5,-,N/A,,Light Drizzle,210,2012-11-06 17:32:00
11:51 AM,35.6,30.2,81,29.69,10.0,SW,4.6,-,N/A,,Overcast,220,2012-11-06 17:51:00
12:11 PM,35.6,30.2,81,29.69,10.0,SW,3.5,-,N/A,,Overcast,230,2012-11-06 18:11:00
12:32 PM,35.6,30.2,81,29.69,10.0,WSW,3.5,-,N/A,,Overcast,250,2012-11-06 18:32:00
12:51 PM,37.4,32.0,81,29.69,10.0,Calm,Calm,-,N/A,,Overcast,0,2012-11-06 18:51:00
1:11 PM,37.4,32.0,81,29.69,10.0,Calm,Calm,-,N/A,,Overcast,0,2012-11-06 19:11:00
1:32 PM,37.4,32.0,81,29.69,10.0,Calm,Calm,-,N/A,,Overcast,0,2012-11-06 19:32:00
1:51 PM,37.4,33.8,87,29.70,10.0,Calm,Calm,-,N/A,,Overcast,0,2012-11-06 19:51:00
2:11 PM,37.4,32.0,81,29.71,10.0,Calm,Calm,-,N/A,,Overcast,0,2012-11-06 20:11:00
2:32 PM,37.4,32.0,81,29.71,10.0,NNW,4.6,-,N/A,,Overcast,340,2012-11-06 20:32:00
2:51 PM,37.4,33.8,87,29.72,10.0,Calm,Calm,-,N/A,,Overcast,0,2012-11-06 20:51:00
3:11 PM,37.4,33.8,87,29.73,10.0,Calm,Calm,-,N/A,,Overcast,0,2012-11-06 21:11:00
3:32 PM,37.4,33.8,87,29.74,10.0,Calm,Calm,-,N/A,,Overcast,0,2012-11-06 21:32:00
3:51 PM,37.4,33.8,87,29.75,10.0,Calm,Calm,-,N/A,,Overcast,0,2012-11-06 21:51:00
4:11 PM,37.4,32.0,81,29.76,10.0,Calm,Calm,-,N/A,,Overcast,0,2012-11-06 22:11:00
4:32 PM,37.4,32.0,81,29.76,10.0,Calm,Calm,-,N/A,,Overcast,0,2012-11-06 22:32:00
4:51 PM,37.4,32.0,81,29.77,10.0,Calm,Calm,-,N/A,,Overcast,0,2012-11-06 22:51:00
5:31 PM,37.4,32.0,81,29.79,10.0,Calm,Calm,-,N/A,,Overcast,0,2012-11-06 23:31:00
5:51 PM,35.6,30.2,81,29.80,10.0,Calm,Calm,-,N/A,Rain,Light Rain,0,2012-11-06 23:51:00
6:11 PM,35.6,30.2,81,29.80,10.0,Calm,Calm,-,N/A,,Overcast,0,2012-11-07 00:11:00
6:31 PM,35.6,30.2,81,29.81,10.0,Calm,Calm,-,N/A,Rain,Light Rain,0,2012-11-07 00:31:00
6:51 PM,35.6,30.2,81,29.82,10.0,Calm,Calm,-,N/A,,Overcast,0,2012-11-07 00:51:00
7:11 PM,35.6,30.2,81,29.83,10.0,Calm,Calm,-,N/A,,Overcast,0,2012-11-07 01:11:00
7:31 PM,35.6,30.2,81,29.83,10.0,NW,3.5,-,N/A,,Overcast,310,2012-11-07 01:31:00
7:51 PM,35.6,30.2,81,29.83,10.0,Calm,Calm,-,N/A,,Overcast,0,2012-11-07 01:51:00
8:11 PM,35.6,30.2,81,29.83,10.0,Calm,Calm,-,N/A,,Overcast,0,2012-11-07 02:11:00
8:31 PM,35.6,30.2,81,29.84,10.0,NW,3.5,-,N/A,,Overcast,310,2012-11-07 02:31:00
8:51 PM,35.6,30.2,81,29.84,10.0,Calm,Calm,-,N/A,,Overcast,0,2012-11-07 02:51:00
9:11 PM,35.6,30.2,81,29.85,10.0,NW,3.5,-,N/A,,Overcast,320,2012-11-07 03:11:00
9:31 PM,35.6,30.2,81,29.86,10.0,Calm,Calm,-,N/A,,Overcast,0,2012-11-07 03:31:00
9:51 PM,35.6,30.2,81,29.87,10.0,Calm,Calm,-,N/A,,Overcast,0,2012-11-07 03:51:00
10:12 PM,35.6,30.2,81,29.87,10.0,Calm,Calm,-,N/A,,Overcast,0,2012-11-07 04:12:00
10:31 PM,35.6,30.2,81,29.87,10.0,Calm,Calm,-,N/A,,Overcast,0,2012-11-07 04:31:00
10:51 PM,35.6,30.2,81,29.87,10.0,Calm,Calm,-,N/A,,Overcast,0,2012-11-07 04:51:00
11:12 PM,35.6,30.2,81,29.88,10.0,Calm,Calm,-,N/A,,Overcast,0,2012-11-07 05:12:00
11:31 PM,35.6,30.2,81,29.89,10.0,NW,3.5,-,N/A,,Overcast,310,2012-11-07 05:31:00
11:51 PM,35.6,30.2,81,29.90,10.0,Calm,Calm,-,N/A,,Overcast,0,2012-11-07 05:51:00